Hourly Data Report for May 22, 2021

WIARTON A
ONTARIO
Current Station Operator: NAVCAN

44°44'39.000" N
81°06'31.000" W
221.90 m
6119499
71633
YVV

Download Data

Hourly Data (May 2021)
Hourly Data Report for May 22, 2021
TIME
LST
Temp Definition
°C
Dew Point Definition
°C
Rel Hum Definition
%
Precip. Amount Definition
mm

Wind Dir Definition
10's deg

Wind Spd Definition
km/h
Visibility Definition
km
Stn Press Definition
kPa
Hmdx Definition


Wind Chill Definition


Weather Definition


00:00 21.6 13.8 61   25 15 24.1 99.84 25   LegendNANA
01:00 21.2 13.5 61   25 15 24.1 99.81     Cloudy
02:00 19.9 13.4 66   28 14 24.1 99.82     LegendNANA
03:00 17.7 13.1 74   24 13 24.1 99.82     LegendNANA
04:00 16.0 12.3 79   21 8 24.1 99.83     Cloudy
05:00 15.8 12.4 80   23 7 24.1 99.87     LegendNANA
06:00 15.2 12.1 82   24 8 24.1 99.93     LegendNANA
07:00 15.3 12.5 84   19 8 24.1 99.97     Cloudy
08:00 15.7 13.9 89   20 9 9.7 99.94     Rain, Fog
09:00 17.4 16.2 92   22 12 16.1 99.91     LegendNANA
10:00 18.2 16.9 92   23 17 9.7 99.86     Rain, Fog
11:00 18.8 18.0 95   23 13 9.7 99.78     Fog
12:00 18.6 17.6 94   24 17 12.9 99.73     LegendNANA
13:00 18.1 17.4 96   25 20 3.2 99.67     Drizzle, Fog
14:00 18.1 17.0 93   26 15 9.7 99.63     Fog
15:00 17.8 16.7 93   26 14 12.9 99.58     LegendNANA
16:00 17.2 16.1 93   26 11 16.1 99.56     Cloudy
17:00 16.8 15.9 94   22 11 4.8 99.52     Fog
18:00 18.2 16.9 91   23 9 12.9 99.47     LegendNANA
19:00 17.2 16.3 95   23 11 12.9 99.41     Mostly Cloudy
20:00 16.4 15.9 97   21 8 9.7 99.34     Fog
21:00 15.9 15.5 98   24 4 16.1 99.34     LegendNANA
22:00 15.6 15.3 98   22 10 16.1 99.29     Clear
23:00 15.4 15.2 99   25 7 3.2 99.26     Fog

Notes on Data Quality.

Legend

  • E = Estimated
  • M = Missing
  • NA = Not Available*
  • [empty] = Indicates an unobserved value
Date modified: